This is the latest recevied weather packets stored in our database for station/object SV2LPQ-2. If no packets are shown the sender has not sent any weather packets the latest 10 day(s).
| Time | Temp. | Humidity | Pressure | Rain* | Wind** | Luminosity | Snow |
|---|---|---|---|---|---|---|---|
| 1777876069 | 12.78° C | 56% | 1042.5 hPa | 0 mm | - | - | - |
| 1777875569 | 12.22° C | 58% | 1042.5 hPa | 0 mm | - | - | - |
| 1777875069 | 11.67° C | 58% | 1042.5 hPa | 0 mm | - | - | - |
| 1777874569 | 11.67° C | 61% | 1042.5 hPa | 0 mm | - | - | - |
| 1777874069 | 11.11° C | 61% | 1042.5 hPa | 0 mm | - | - | - |
| 1777873568 | 11.11° C | 64% | 1042.5 hPa | 0 mm | - | - | - |
| 1777873068 | 10.56° C | 63% | 1042.5 hPa | 0 mm | - | - | - |
| 1777872568 | 10° C | 61% | 1042.5 hPa | 0 mm | - | - | - |
| 1777872068 | 10° C | 60% | 1042.5 hPa | 0 mm | - | - | - |
| 1777871568 | 10° C | 60% | 1042.5 hPa | 0 mm | - | - | - |
| 1777871067 | 9.44° C | 61% | 1042.5 hPa | 0 mm | - | - | - |
| 1777870567 | 8.89° C | 61% | 1042.5 hPa | 0 mm | - | - | - |
| 1777870067 | 8.33° C | 62% | 1042.5 hPa | 0 mm | - | - | - |
| 1777869567 | 8.33° C | 64% | 1042.5 hPa | 0 mm | - | - | - |
| 1777869067 | 7.78° C | 66% | 1042.5 hPa | 0 mm | - | - | - |
| 1777868567 | 6.67° C | 69% | 1042.5 hPa | 0 mm | - | - | - |
| 1777868066 | 6.11° C | 72% | 1042.5 hPa | 0 mm | - | - | - |
| 1777867566 | 5.56° C | 74% | 1042.5 hPa | 0 mm | - | - | - |
| 1777867066 | 5° C | 77% | 1042.5 hPa | 0 mm | - | - | - |
| 1777866566 | 4.44° C | 78% | 1042.5 hPa | 0 mm | - | - | - |
| 1777866065 | 4.44° C | 77% | 1042.5 hPa | 0 mm | - | - | - |
| 1777865565 | 4.44° C | 77% | 1042.5 hPa | 0 mm | - | - | - |
| 1777865065 | 4.44° C | 76% | 1042.5 hPa | 0 mm | - | - | - |
| 1777864565 | 5° C | 75% | 1042.5 hPa | 0 mm | - | - | - |
| 1777864065 | 5° C | 74% | 1042.5 hPa | 0 mm | - | - | - |
* Rain latest hour (hover to see other rain measurements)
** Current wind speed in m/s (hover to see current wind gust speed)